Location: D�derode
(51.8092°N, 10.1065°E)
Time: 05:53:16
(UTC+00:00)

USA 267 - Pass Details

Date: 01 December 2020
Orbit: 1100 x 1107 km, 123.0° (Epoch: 18 January)

Event Time Altitude Azimuth Distance (km) Brightness Sun altitude
Exits shadow 19:21:25 46° 242° (WSW) 1,441 4.0 -37.4°
Drops below altitude 10° 19:26:58 10° 296° (WNW) 2,968 6.2 -38.2°
Sets 19:29:34 0° 302° (WNW) 3,929 7.0 -38.6°
